Showing default

LCS 1, 1361

Orbit data source: Space-Track

LCS 1, 1361 is an American payload satellite in LEO that was launched on Thu, 06 May 1965 UTC via a TITAN IIIA launch vehicle from the Air Force Eastern Test Range (AFETR). Payload-class satellites include a variety of spacecraft equipped with specific instruments for various scientific and technological missions. These include communications satellites like Starlink; space stations such as the ISS; scientific satellites like the Hubble; Earth observation satellites from companies like Planet Labs, Umbra, and HawkEye 360; GPS; miniature CubeSats for education and research; and military/defense satellites.

Loading next visibility...
Identifier
1361, 1965-034C
Orbit
LEO
Last TLE update
22 hours ago
Origin
Manufacturer
ROHR/MITLL
Mission
Operational Defense Calibration
Bus & Motor
LCS, Unknown motor
Mass
34 kg wet, 34 kg dry
Launch date (UTC)
1965-05-06 (60 years ago)
Launch vehicle
TITAN IIIA
Launch site
Air Force Eastern Test Range (AFETR)
Object type
Payload
Rocket body
Debris
Shape & HBR
Sphere, 1.13 m
Radar Cross Section
1.003 m², Medium (>0.1 m² and < 1m²)

Expand to show TLE details & history

TLE from 22 hours ago
0 LCS 1
1 01361U 65034C   25191.46266392  .00000030  00000-0  28601-2 0  9997
2 01361  32.1407 268.4094 0012883 351.4317   8.5959  9.89308976176042
Epoch: 2025-07-10T11:06Z
TLE epoch observation values (Epoch: 2025-07-10T11:06:14.162Z)
Latitude
-0.00004°
Longitude
173.22174°
Altitude
2,775.164 km
Speed
6.605 km/s
True Right ascension
17h 53m 38s
True Declination
0° 00' 00"
Sunlit
Object was in full shadow at epoch
Visualization orbit readout
Latitude
32.24964°
Longitude
-99.62226°
Altitude
2,789.187 km
Speed
6.598 km/s
Apparent Right ascension
01h 58m 23s
Apparent Declination
10° 53' 59"
Sunlit
Object is in daylight
Visualization observer readout
Local Sidereal Time
21:48:42
Azimuth
99.564° ESE
Elevation
28.033°
Doppler factor
1
Orbital elements
Apogee altitude
2,802.461 km
Perigee altitude
2,778.837 km
Semi-major axis
9,168.786 km
Eccentricity
0.00129
Inclination
32.1407°
RAAN
268.4094°
Arg. of periapsis
351.4317°
True anomaly
Unknown
Mean anomaly
8.5959°
Eccentric anomaly
Unknown
Mean motion
2.47215 °/min
Orbital period
145.62 mins
BSTAR
0.0028601
Loading maneuver chart data...
Loading SW <> Apogee altitude chart data...
Loading historical data...
Loading historical data...
Loading historical data...
Loading historical data...
Loading historical data...
Loading historical data...
Loading historical data...
Other satellites on launch #34 in the year 1965 (1965-05-06 UTC)

LCS 1 Visibility forecast

Observer location: undefined°, undefined°

Span
Click to sort rows by Start time (UTC) header in descending order
Start Az.
Max El. time (UTC)
Max El. Az.
Max El.
End time (UTC)
End Az.
5 mins2025-07-11 09:30:58.635Z99.722° ESE2025-07-11 09:30:58.635Z99.722° ESE25.126°2025-07-11 09:35:58.635Z90.895° ESE
29 mins2025-07-11 11:44:58.635Z260.573° W2025-07-11 11:58:58.635Z188.48° SSW42.126°2025-07-11 12:13:58.635Z108.619° ESE
28 mins2025-07-11 14:22:58.635Z270.373° WNW2025-07-11 14:36:58.635Z202.178° SSW35.096°2025-07-11 14:50:58.635Z140.204° SSE
15 mins2025-07-11 17:05:58.635Z249.237° W2025-07-11 17:12:58.635Z220.754° SW15.849°2025-07-11 17:20:58.635Z189.288° SSW
25 mins2025-07-12 06:48:58.635Z201.507° SSW2025-07-12 07:00:58.635Z147.632° SSE28.711°2025-07-12 07:13:58.635Z90.542° ESE
7 mins2025-07-12 09:23:58.635Z239.361° WSW2025-07-12 09:30:58.635Z224.666° SW31.766°2025-07-12 09:30:58.635Z224.666° SW
|